Winner, SD

12:46 PM CDT on August 24, 2016 (GMT -0500)
Winner

Weather History for KICR - November, 2012

Change the Weather History Date:

Sunday, November 18, 2012

  Actual Average Record
Temperature  
Mean Temperature 52 °F 34 °F  
Max Temperature 70 °F 44 °F 70 °F (2012)
Min Temperature 33 °F 25 °F 2 °F (2014)
Degree Days  
Heating Degree Days 13 31  
Month to date heating degree days 463 466  
Since 1 July heating degree days 1008 1064  
Cooling Degree Days 0 0  
Month to date cooling degree days 0 0  
Year to date cooling degree days 1470 916  
Growing Degree Days 3 (Base 50)    
Moisture  
Dew Point 34 °F    
Average Humidity 51    
Maximum Humidity 76    
Minimum Humidity 26    
Precipitation  
Precipitation 0.00 in 0.02 in 0.00 in (2016)
Month to date precipitation 0.01 0.43  
Year to date precipitation 10.16 21.06  
Sea Level Pressure  
Sea Level Pressure 29.91 in    
Wind  
Wind Speed 13 mph (South)    
Max Wind Speed 24 mph    
Max Gust Speed 32 mph    
Visibility 10 miles    
Events      
T = Trace of Precipitation, MM = Missing Value Source: NWS Daily Summary

Daily Weather History Graph

Daily Weather History Graph

Search for Another Location

Airport or City:

Trip Planner

Search our weather history database for the weather conditions in past years. The results will help you decide how hot, cold, wet, or windy it might be!

Date:

Astronomy

Nov. 18, 2012 Rise Set
Actual Time 7:37 AM CST 5:11 PM CST
Civil Twilight 7:06 AM CST 5:42 PM CST
Nautical Twilight 6:31 AM CST 6:17 PM CST
Astronomical Twilight 5:57 AM CST 6:51 PM CST
Moon 12:03 PM CST (11/18) 10:35 PM CST (11/18)
Length of Visible Light 10h 36m
Length of Day
9h 34m
Waxing Crescent, 30% of the Moon is Illuminated
Nov 18
Waxing Crescent
Nov 20
First Quarter
Nov 28
Full
Dec 6
Last Quarter
Dec 13
New

Hourly Weather History & Observations

Time (CST) Temp. Windchill Dew Point Humidity Pressure Visibility Wind Dir Wind Speed Gust Speed Precip Events Conditions
12:53 AM 42.1 °F 37.1 °F 28.9 °F 60% 29.99 in 10.0 mi SSW 8.1 mph - N/A   Clear
1:53 AM 42.1 °F 37.7 °F 28.9 °F 60% 29.98 in 10.0 mi SSW 6.9 mph - N/A   Clear
2:53 AM 45.0 °F 42.6 °F 28.9 °F 53% 29.98 in 10.0 mi SSW 4.6 mph - N/A   Clear
3:53 AM 39.9 °F 36.7 °F 28.0 °F 63% 29.97 in 10.0 mi SSE 4.6 mph - N/A   Clear
4:53 AM 36.0 °F 31.1 °F 27.0 °F 70% 29.98 in 10.0 mi SE 5.8 mph - N/A   Clear
5:53 AM 37.9 °F - 28.0 °F 68% 29.97 in 10.0 mi Calm Calm - N/A   Clear
6:53 AM 37.9 °F - 28.0 °F 68% 29.97 in 10.0 mi Calm Calm - N/A   Partly Cloudy
7:53 AM 37.9 °F 31.5 °F 30.0 °F 73% 29.99 in 10.0 mi South 9.2 mph - N/A   Mostly Cloudy
8:53 AM 39.9 °F 35.1 °F 30.9 °F 70% 29.96 in 10.0 mi SE 6.9 mph - N/A   Mostly Cloudy
9:53 AM 48.0 °F - 33.1 °F 56% 29.95 in 10.0 mi SE 10.4 mph - N/A   Partly Cloudy
10:53 AM 59.0 °F - 36.0 °F 42% 29.93 in 10.0 mi SSE 10.4 mph - N/A   Partly Cloudy
11:53 AM 61.0 °F - 34.0 °F 36% 29.91 in 10.0 mi South 21.9 mph 27.6 mph N/A   Clear
12:53 PM 64.9 °F - 33.1 °F 31% 29.86 in 10.0 mi South 20.7 mph 24.2 mph N/A   Clear
1:53 PM 69.1 °F - 34.0 °F 27% 29.83 in 10.0 mi SSE 17.3 mph - N/A   Clear
2:53 PM 70.0 °F - 37.0 °F 30% 29.81 in 10.0 mi South 18.4 mph - N/A   Clear
3:53 PM 68.0 °F - 37.0 °F 32% 29.82 in 10.0 mi South 12.7 mph - N/A   Clear
4:53 PM 63.0 °F - 39.0 °F 41% 29.83 in 10.0 mi South 13.8 mph - N/A   Clear
5:53 PM 57.9 °F - 39.9 °F 51% 29.85 in 10.0 mi South 13.8 mph - N/A   Clear
6:53 PM 55.9 °F - 39.9 °F 55% 29.87 in 10.0 mi South 17.3 mph - N/A   Clear
7:53 PM 54.0 °F - 39.0 °F 57% 29.87 in 10.0 mi South 19.6 mph - N/A   Clear
8:53 PM 51.1 °F - 37.9 °F 61% 29.87 in 10.0 mi SSW 20.7 mph 29.9 mph N/A   Clear
9:53 PM 50.0 °F - 37.0 °F 61% 29.87 in 10.0 mi SSW 20.7 mph 31.1 mph N/A   Clear
10:53 PM 48.9 °F - 37.0 °F 64% 29.84 in 10.0 mi SSW 21.9 mph - N/A   Clear
11:53 PM 48.0 °F - 37.0 °F 66% 29.85 in 10.0 mi SSW 16.1 mph - N/A   Clear